West Memphis, AR

11:23 AM CST on November 22, 2019 (GMT -0600)
West Memphis Municipal

Weather History for KAWM - September, 2019

Change the Weather History Date:

Monday, September 23, 2019

  Actual Average Record
Temperature  
Mean Temperature 78 °F -  
Max Temperature 82 °F 81 °F 95 °F (2010)
Min Temperature 73 °F 59 °F 44 °F (1989)
Cooling Degree Days 12    
Growing Degree Days 28 (Base 50)    
Moisture  
Dew Point 73 °F    
Average Humidity 92    
Maximum Humidity 100    
Minimum Humidity 71    
Precipitation  
Precipitation 0.00 in - - ()
Sea Level Pressure  
Sea Level Pressure 30.03 in    
Wind  
Wind Speed 5 mph (SW)    
Max Wind Speed 8 mph    
Max Gust Speed -    
Visibility 6 miles    
Events Rain    
Averages and records for this station are not official NWS values.
T = Trace of Precipitation, MM = Missing Value Source: NWS Daily Summary

Daily Weather History Graph

Daily Weather History Graph

Search for Another Location

Airport or City:

Astronomy

Sep. 23, 2019 Rise Set
Actual Time 6:49 AM CDT 6:56 PM CDT
Civil Twilight 6:24 AM CDT 7:21 PM CDT
Nautical Twilight 5:54 AM CDT 7:51 PM CDT
Astronomical Twilight 5:24 AM CDT 8:21 PM CDT
Moon 12:46 AM CDT (9/23) 3:36 PM CDT (9/23)
Length of Visible Light 12h 57m
Length of Day
12h 07m
Waning Crescent, 33% of the Moon is Illuminated
Sep 23
Waning Crescent
Sep 28
New
Oct 5
First Quarter
Oct 13
Full
Oct 21
Last Quarter

Hourly Weather History & Observations

Time (CDT) Temp. Heat Index Dew Point Humidity Pressure Visibility Wind Dir Wind Speed Gust Speed Precip Events Conditions
12:53 AM 75.9 °F - 66.0 °F 71% 30.01 in 10.0 mi South 6.9 mph - N/A   Clear
1:53 AM 75.0 °F - 66.9 °F 76% 30.01 in 10.0 mi South 6.9 mph - N/A   Clear
2:53 AM 75.9 °F - 66.9 °F 74% 30.00 in 10.0 mi South 6.9 mph - N/A   Overcast
3:53 AM 75.9 °F - 66.9 °F 74% 29.99 in 10.0 mi South 6.9 mph - N/A   Overcast
4:53 AM 75.0 °F - 68.0 °F 79% 29.99 in 10.0 mi SSW 6.9 mph - N/A   Scattered Clouds
5:53 AM 75.9 °F - 68.0 °F 76% 30.01 in 10.0 mi SSW 6.9 mph - N/A   Mostly Cloudy
6:53 AM 75.0 °F - 69.1 °F 82% 30.02 in 10.0 mi SSW 5.8 mph - N/A   Overcast
7:53 AM 75.0 °F - 69.1 °F 82% 30.04 in 10.0 mi South 5.8 mph - N/A   Overcast
8:53 AM 75.9 °F - 71.1 °F 85% 30.04 in 9.0 mi SSW 3.5 mph - 0.00 in   Overcast
9:53 AM 77.0 °F - 71.1 °F 82% 30.06 in 10.0 mi WSW 3.5 mph - 0.00 in   Overcast
10:15 AM 75.9 °F - 73.0 °F 91% 30.08 in 1.8 mi Variable 3.5 mph - 0.00 in Rain Light Rain
10:28 AM 75.0 °F - 75.0 °F 100% 30.07 in 3.0 mi Calm Calm - N/A Rain Light Rain
10:53 AM 77.0 °F - 77.0 °F 100% 30.06 in 8.0 mi Calm Calm - N/A Rain Light Rain
11:30 AM 75.9 °F - 75.9 °F 100% 30.08 in 1.8 mi Variable 4.6 mph - N/A Rain Light Rain
11:34 AM 75.9 °F - 75.9 °F 100% 30.08 in 0.8 mi Variable 4.6 mph - N/A Rain Heavy Rain
11:42 AM 75.0 °F - 75.0 °F 100% 30.08 in 0.8 mi WSW 6.9 mph - N/A Rain Heavy Rain
11:46 AM 75.0 °F - 75.0 °F 100% 30.08 in 1.0 mi Calm Calm - N/A Rain Rain
11:53 AM 75.0 °F - 75.0 °F 100% 30.07 in 0.8 mi SW 5.8 mph - N/A Rain Heavy Rain
11:55 AM 75.0 °F - - N/A% 30.08 in 0.5 mi WSW 5.8 mph - N/A Rain Heavy Rain
12:02 PM 75.0 °F - - N/A% 30.08 in 0.8 mi SW 5.8 mph - N/A Rain Rain
12:07 PM 75.0 °F - - N/A% 30.07 in 2.0 mi WSW 4.6 mph - N/A Rain Light Rain
12:25 PM 75.9 °F - 75.9 °F 100% 30.07 in 5.0 mi SSW 8.1 mph - N/A Rain Light Rain
12:53 PM 77.0 °F - 75.9 °F 96% 30.06 in 8.0 mi SSW 8.1 mph - N/A Rain Light Rain
1:06 PM 77.0 °F - 77.0 °F 100% 30.06 in 9.0 mi SSW 5.8 mph - 0.00 in   Overcast
1:16 PM 77.0 °F - 77.0 °F 100% 30.06 in 9.0 mi Variable 6.9 mph - 0.00 in   Overcast
1:53 PM 80.1 °F 86.4 °F 78.1 °F 94% 30.03 in 10.0 mi WSW 5.8 mph - 0.00 in   Mostly Cloudy
2:53 PM 81.0 °F 87.3 °F 75.9 °F 85% 30.01 in 10.0 mi Variable 4.6 mph - N/A   Overcast
3:53 PM 82.0 °F 88.6 °F 75.0 °F 79% 30.01 in 10.0 mi SSW 5.8 mph - N/A   Mostly Cloudy
5:53 PM 81.0 °F 87.3 °F 75.9 °F 85% 29.99 in 10.0 mi SW 3.5 mph - N/A   Clear
6:53 PM 79.0 °F - 75.9 °F 90% 29.99 in 10.0 mi Calm Calm - N/A   Overcast
7:53 PM 75.9 °F - 75.9 °F 100% 29.99 in 9.0 mi Calm Calm - N/A   Scattered Clouds
8:53 PM 75.0 °F - 75.0 °F 100% 30.00 in 8.0 mi Calm Calm - N/A   Partly Cloudy
9:23 PM 75.0 °F - 75.0 °F 100% 30.01 in 2.5 mi Calm Calm - N/A   Clear
9:32 PM 73.9 °F - 73.9 °F 100% 30.01 in 5.0 mi WNW 3.5 mph - N/A   Clear
9:51 PM 73.4 °F - 73.4 °F 100% 30.01 in 1.2 mi Calm Calm - N/A   Clear
9:53 PM 73.9 °F - 73.9 °F 100% 30.00 in 1.0 mi Calm Calm - N/A   Clear
10:08 PM 73.9 °F - 73.9 °F 100% 30.01 in 2.0 mi Calm Calm - N/A   Clear
10:29 PM 73.0 °F - 73.0 °F 100% 30.01 in 3.0 mi Calm Calm - N/A   Clear
10:31 PM 73.9 °F - 73.9 °F 100% 30.01 in 1.5 mi Calm Calm - N/A   Clear
10:42 PM 75.0 °F - 75.0 °F 100% 30.01 in 3.0 mi Calm Calm - N/A   Clear
10:53 PM 73.9 °F - 73.9 °F 100% 30.00 in 3.0 mi NNW 3.5 mph - N/A   Clear
11:53 PM 73.9 °F - 73.9 °F 100% 29.99 in 5.0 mi NNE 4.6 mph - N/A   Clear